H1 CPF 1 NER 2017 8 8 9 7201 glonass103 H2 0606202 9103 29671 2017 8 8 0 0 0 2017 8 11 23 45 0 900 1 1 0 0 0 H9 10 0 57973 0.00000 0 -17654321.988 11090881.387 14614078.134 10 0 57973 900.00000 0 -19202356.603 11676025.918 11962309.578 10 0 57973 1800.00000 0 -20380368.114 12262147.107 9076827.384 10 0 57973 2700.00000 0 -21174036.890 12790682.399 6013978.262 10 0 57973 3600.00000 0 -21582658.605 13202988.631 2833607.860 10 0 57973 4500.00000 0 -21618996.931 13443021.668 -402130.483 10 0 57973 5400.00000 0 -21308578.136 13459917.732 -3630014.244 10 0 57973 6300.00000 0 -20688458.740 13210364.206 -6787010.771 10 0 57973 7200.00000 0 -19805520.676 12660657.112 -9811529.604 10 0 57973 8100.00000 0 -18714368.857 11788356.377 -12644641.330 10 0 57973 9000.00000 0 -17474922.958 10583467.902 -15231237.349 10 0 57973 9900.00000 0 -16149808.007 9049102.402 -17521106.633 10 0 57973 10800.00000 0 -14801656.196 7201583.818 -19469908.194 10 0 57973 11700.00000 0 -13490435.200 5070003.906 -21040020.687 10 0 57973 12600.00000 0 -12270916.093 2695243.251 -22201253.782 10 0 57973 13500.00000 0 -11190386.844 128501.236 -22931409.288 10 0 57973 14400.00000 0 -10286705.975 -2570602.308 -23216683.401 10 0 57973 15300.00000 0 -9586775.799 -5336273.716 -23051904.710 10 0 57973 16200.00000 0 -9105496.381 -8099046.673 -22440605.848 10 0 57973 17100.00000 0 -8845240.931 -10788434.622 -21394929.647 10 0 57973 18000.00000 0 -8795871.604 -13335625.492 -19935373.494 10 0 57973 18900.00000 0 -8935292.342 -15676108.922 -18090378.204 10 0 57973 19800.00000 0 -9230513.510 -17752129.511 -15895770.100 10 0 57973 20700.00000 0 -9639182.403 -19514866.949 -13394067.329 10 0 57973 21600.00000 0 -10111514.900 -20926255.367 -10633663.420 10 0 57973 22500.00000 0 -10592547.460 -21960368.942 -7667902.979 10 0 57973 23400.00000 0 -11024615.754 -22604318.255 -4554066.234 10 0 57973 24300.00000 0 -11349957.115 -22858621.791 -1352280.525 10 0 57973 25200.00000 0 -11513328.845 -22737038.029 1875621.864 10 0 57973 26100.00000 0 -11464533.716 -22265865.423 5067279.064 10 0 57973 27000.00000 0 -11160747.499 -21482739.128 8160987.037 10 0 57973 27900.00000 0 -10568551.136 -20434973.813 11096877.623 10 0 57973 28800.00000 0 -9665581.973 -19177520.528 13818065.522 10 0 57973 29700.00000 0 -8441733.633 -17770621.512 16271743.073 10 0 57973 30600.00000 0 -6899852.320 -16277259.499 18410202.294 10 0 57973 31500.00000 0 -5055897.809 -14760506.842 20191764.574 10 0 57973 32400.00000 0 -2938559.140 -13280884.390 21581599.968 10 0 57973 33300.00000 0 -588337.502 -11893840.083 22552419.659 10 0 57973 34200.00000 0 1943869.022 -10647452.883 23085027.175 10 0 57973 35100.00000 0 4598623.331 -9580458.851 23168716.306 10 0 57973 36000.00000 0 7310175.397 -8720683.209 22801506.315 10 0 57973 36900.00000 0 10008966.114 -8083945.800 21990207.855 10 0 57973 37800.00000 0 12624306.029 -7673487.710 20750316.239 10 0 57973 38700.00000 0 15087117.919 -7479944.994 19105732.006 10 0 57973 39600.00000 0 17332628.313 -7481872.303 17088312.363 10 0 57973 40500.00000 0 19302894.484 -7646795.492 14737260.693 10 0 57973 41400.00000 0 20949059.591 -7932749.331 12098365.021 10 0 57973 42300.00000 0 22233239.461 -8290235.096 9223099.998 10 0 57973 43200.00000 0 23129960.126 -8664514.097 6167610.328 10 0 57973 44100.00000 0 23627084.187 -8998138.148 2991596.567 10 0 57973 45000.00000 0 23726186.256 -9233607.264 -242873.087 10 0 57973 45900.00000 0 23442361.687 -9316039.016 -3472599.569 10 0 57973 46800.00000 0 22803477.673 -9195733.424 -6634511.598 10 0 57973 47700.00000 0 21848900.067 -8830521.953 -9666918.964 10 0 57973 48600.00000 0 20627752.168 -8187798.906 -12510733.661 10 0 57973 49500.00000 0 19196781.777 -7246147.734 -15110633.175 10 0 57973 50400.00000 0 17617929.387 -5996492.882 -17416141.931 10 0 57973 51300.00000 0 15955702.566 -4442728.712 -19382609.408 10 0 57973 52200.00000 0 14274468.957 -2601799.782 -20972066.256 10 0 57973 53100.00000 0 12635782.836 -503230.485 -22153942.821 10 0 57973 54000.00000 0 11095857.456 1811874.774 -22905637.914 10 0 57973 54900.00000 0 9703288.177 4292317.610 -23212929.036 10 0 57973 55800.00000 0 8497119.822 6878714.658 -23070218.488 10 0 57973 56700.00000 0 7505336.423 9505749.493 -22480613.165 10 0 57973 57600.00000 0 6743833.306 12104673.837 -21455838.710 10 0 57973 58500.00000 0 6215911.229 14605954.901 -20015991.607 10 0 57973 59400.00000 0 5912310.514 16941960.417 -18189135.431 10 0 57973 60300.00000 0 5811780.989 19049571.987 -16010749.817 10 0 57973 61200.00000 0 5882161.876 20872620.598 -13523043.078 10 0 57973 62100.00000 0 6081925.048 22364045.762 -10774141.398 10 0 57973 63000.00000 0 6362116.492 23487691.077 -7817169.406 10 0 57973 63900.00000 0 6668614.780 24219663.642 -4709238.777 10 0 57973 64800.00000 0 6944612.528 24549202.490 -1510362.866 10 0 57973 65700.00000 0 7133217.785 24479020.945 1717683.267 10 0 57973 66600.00000 0 7180067.299 24025109.006 4912537.016 10 0 57973 67500.00000 0 7035842.924 23216003.748 8012435.506 10 0 57973 68400.00000 0 6658586.119 22091557.316 10957394.535 10 0 57973 69300.00000 0 6015713.375 20701252.616 13690357.538 10 0 57973 70200.00000 0 5085647.335 19102135.370 16158293.356 10 0 57973 71100.00000 0 3858993.656 17356447.136 18313222.284 10 0 57973 72000.00000 0 2339212.111 15529056.481 20113150.698 10 0 57973 72900.00000 0 542750.874 13684794.191 21522896.138 10 0 57973 73800.00000 0 -1501365.046 11885802.801 22514786.317 10 0 57973 74700.00000 0 -3752477.658 10189010.774 23069217.534 10 0 57973 75600.00000 0 -6159736.403 8643836.997 23175060.332 10 0 57973 76500.00000 0 -8663978.389 7290222.256 22829902.828 10 0 57973 77400.00000 0 -11199972.747 6157071.291 22040125.023 10 0 57973 78300.00000 0 -13698937.504 5261172.205 20820800.555 10 0 57973 79200.00000 0 -16091225.045 4606640.154 19195425.704 10 0 57973 80100.00000 0 -18309064.075 4184910.287 17195479.015 10 0 57973 81000.00000 0 -20289242.725 3975281.420 14859818.603 10 0 57973 81900.00000 0 -21975619.027 3945988.167 12233927.789 10 0 57973 82800.00000 0 -23321351.537 4055756.241 9369023.505 10 0 57973 83700.00000 0 -24290754.422 4255774.308 6321045.171 10 0 57973 84600.00000 0 -24860697.138 4491997.247 3149544.846 10 0 57973 85500.00000 0 -25021488.357 4707680.938 -83497.848 10 0 57974 0.00000 0 -24777206.325 4846038.293 -3314910.624 10 0 57974 900.00000 0 -24145461.682 4852900.522 -6481586.993 10 0 57974 1800.00000 0 -23156604.608 4679268.909 -9521740.098 10 0 57974 2700.00000 0 -21852410.524 4283644.506 -12376126.297 10 0 57974 3600.00000 0 -20284303.419 3634037.179 -14989211.890 10 0 57974 4500.00000 0 -18511193.696 2709566.496 -17310259.157 10 0 57974 5400.00000 0 -16597024.545 1501587.154 -19294310.062 10 0 57974 6300.00000 0 -14608132.104 14291.787 -20903048.806 10 0 57974 7200.00000 0 -12610531.788 -1735233.092 -22105527.462 10 0 57974 8100.00000 0 -10667245.086 -3717498.925 -22878742.381 10 0 57974 9000.00000 0 -8835778.194 -5891632.627 -23208052.381 10 0 57974 9900.00000 0 -7165856.480 -8206875.814 -23087433.022 10 0 57974 10800.00000 0 -5697506.950 -10604502.286 -22519564.576 10 0 57974 11700.00000 0 -4459565.730 -13020073.509 -21515754.238 10 0 57974 12600.00000 0 -3468669.464 -15385938.515 -20095696.032 10 0 57974 13500.00000 0 -2728769.238 -17633875.286 -18287074.485 10 0 57974 14400.00000 0 -2231184.119 -19697765.483 -16125020.558 10 0 57974 15300.00000 0 -1955189.400 -21516193.357 -13651430.613 10 0 57974 16200.00000 0 -1869112.973 -23034863.153 -10914161.319 10 0 57974 17100.00000 0 -1931892.718 -24208736.846 -7966115.149 10 0 57974 18000.00000 0 -2095029.298 -25003805.311 -4864233.053 10 0 57974 18900.00000 0 -2304852.701 -25398420.954 -1668412.286 10 0 57974 19800.00000 0 -2505008.220 -25384137.437 1559631.388 10 0 57974 20700.00000 0 -2639058.549 -24966021.963 4757536.662 10 0 57974 21600.00000 0 -2653093.769 -24162426.939 7863483.839 10 0 57974 22500.00000 0 -2498240.434 -23004229.705 10817374.681 10 0 57974 23400.00000 0 -2132964.790 -21533570.684 13561983.336 10 0 57974 24300.00000 0 -1525073.154 -19802140.839 16044057.109 10 0 57974 25200.00000 0 -653324.560 -17869087.904 18215346.450 10 0 57974 26100.00000 0 491413.736 -15798626.740 20033544.492 10 0 57974 27000.00000 0 1905518.768 -13657451.702 21463117.869 10 0 57974 27900.00000 0 3572502.643 -11512057.415 22476012.238 10 0 57974 28800.00000 0 5463449.613 -9426078.820 23052217.872 10 0 57974 29700.00000 0 7537984.834 -7457761.035 23180183.022 10 0 57974 30600.00000 0 9745737.912 -5657664.808 22857065.384 10 0 57974 31500.00000 0 12028243.114 -4066704.243 22088814.782 10 0 57974 32400.00000 0 14321199.384 -2714599.956 20890083.419 10 0 57974 33300.00000 0 16556997.292 -1618813.860 19283963.287 10 0 57974 34200.00000 0 18667407.819 -784011.734 17301553.976 10 0 57974 35100.00000 0 20586320.149 -202077.369 14981367.715 10 0 57974 36000.00000 0 22252412.530 147321.520 12368582.162 10 0 57974 36900.00000 0 23611642.294 295639.278 9514155.166 10 0 57974 37800.00000 0 24619448.255 283876.987 6473819.078 10 0 57974 38700.00000 0 25242570.631 160593.877 3306975.260 10 0 57974 39600.00000 0 25460409.939 -20408.225 75512.151 10 0 57974 40500.00000 0 25265866.319 -202626.568 -3157427.803 10 0 57974 41400.00000 0 24665623.380 -329514.419 -6328705.814 10 0 57974 42300.00000 0 23679865.056 -347137.551 -9376441.739 10 0 57974 43200.00000 0 22341438.679 -206714.795 -12241239.561 10 0 57974 44100.00000 0 20694501.544 133067.288 -14867357.526 10 0 57974 45000.00000 0 18792710.471 704065.117 -17203798.712 10 0 57974 45900.00000 0 16697033.042 1527099.011 -19205300.286 10 0 57974 46800.00000 0 14473274.840 2610850.841 -20833202.470 10 0 57974 47700.00000 0 12189428.197 3951284.001 -22056181.277 10 0 57974 48600.00000 0 9912954.469 5531608.739 -22850832.525 10 0 57974 49500.00000 0 7708113.439 7322792.720 -23202097.978 10 0 57974 50400.00000 0 5633450.386 9284593.819 -23103527.737 10 0 57974 51300.00000 0 3739543.658 11367070.670 -22557376.348 10 0 57974 52200.00000 0 2067103.788 13512507.158 -21574533.037 10 0 57974 53100.00000 0 645500.138 15657670.361 -20174289.392 10 0 57974 54000.00000 0 -508227.164 17736308.440 -18383950.452 10 0 57974 54900.00000 0 -1389832.286 19681785.651 -16238297.578 10 0 57974 55800.00000 0 -2007789.440 21429746.414 -13778913.811 10 0 57974 56700.00000 0 -2382684.992 22920699.609 -11053384.466 10 0 57974 57600.00000 0 -2546103.151 24102417.668 -8114387.599 10 0 57974 58500.00000 0 -2539052.807 24932052.537 -5018690.814 10 0 57974 59400.00000 0 -2410001.737 25377882.091 -1826072.308 10 0 57974 60300.00000 0 -2212600.174 25420615.459 1401814.645 10 0 57974 61200.00000 0 -2003188.430 25054203.353 4602613.399 10 0 57974 62100.00000 0 -1838192.211 24286119.603 7714450.860 10 0 57974 63000.00000 0 -1771514.010 23137101.324 10677118.168 10 0 57974 63900.00000 0 -1852029.427 21640357.214 13433223.511 10 0 57974 64800.00000 0 -2121293.391 19840275.153 15929295.809 10 0 57974 65700.00000 0 -2611553.006 17790680.776 18116818.628 10 0 57974 66600.00000 0 -3344151.599 15552717.364 19953174.564 10 0 57974 67500.00000 0 -4328392.845 13192433.186 21402481.773 10 0 57974 68400.00000 0 -5560915.200 10778174.837 22436305.975 10 0 57974 69300.00000 0 -7025605.981 8377893.751 23034233.158 10 0 57974 70200.00000 0 -8694062.164 6056477.128 23184290.628 10 0 57974 71100.00000 0 -10526582.149 3873214.217 22883206.521 10 0 57974 72000.00000 0 -12473650.236 1879503.960 22136500.836 10 0 57974 72900.00000 0 -14477854.478 116900.501 20958404.111 10 0 57974 73800.00000 0 -16476159.678 -1384420.603 19371603.230 10 0 57974 74700.00000 0 -18402441.365 -2606709.812 17406817.398 10 0 57974 75600.00000 0 -20190174.706 -3545159.548 15102210.959 10 0 57974 76500.00000 0 -21775164.703 -4207866.000 12502653.384 10 0 57974 77400.00000 0 -23098201.343 -4615237.931 9658840.486 10 0 57974 78300.00000 0 -24107525.920 -4798877.748 6626294.255 10 0 57974 79200.00000 0 -24761002.280 -4799983.126 3464261.827 10 0 57974 80100.00000 0 -25027899.226 -4667338.663 234536.815 10 0 57974 81000.00000 0 -24890207.039 -4454985.112 -2999771.799 10 0 57974 81900.00000 0 -24343431.439 -4219667.950 -6175496.701 10 0 57974 82800.00000 0 -23396831.141 -4018176.598 -9230667.958 10 0 57974 83700.00000 0 -22073089.640 -3904690.112 -12105740.563 10 0 57974 84600.00000 0 -20407436.375 -3928244.468 -14744767.861 10 0 57974 85500.00000 0 -18446256.409 -4130430.568 -17096496.566 10 0 57975 0.00000 0 -16245249.393 -4543421.403 -19115361.438 10 0 57975 900.00000 0 -13867217.279 -5188412.361 -20762360.711 10 0 57975 1800.00000 0 -11379575.884 -6074538.552 -22005795.651 10 0 57975 2700.00000 0 -8851695.432 -7198315.616 -22821862.256 10 0 57975 3600.00000 0 -6352181.589 -8543623.665 -23195085.331 10 0 57975 4500.00000 0 -3946210.164 -10082234.653 -23118589.022 10 0 57975 5400.00000 0 -1693024.783 -11774858.812 -22594201.132 10 0 57975 6300.00000 0 356300.624 -13572665.335 -21632391.457 10 0 57975 7200.00000 0 2160744.441 -15419212.978 -20252047.333 10 0 57975 8100.00000 0 3690790.266 -17252710.012 -18480092.226 10 0 57975 9000.00000 0 4929393.207 -19008509.903 -16350955.608 10 0 57975 9900.00000 0 5872422.643 -20621739.862 -13905904.767 10 0 57975 10800.00000 0 6528565.982 -22029954.371 -11192251.155 10 0 57975 11700.00000 0 6918699.721 -23175704.969 -8262445.863 10 0 57975 12600.00000 0 7074755.571 -24008921.048 -5173080.596 10 0 57975 13500.00000 0 7038129.855 -24489004.055 -1983811.981 10 0 57975 14400.00000 0 6857702.848 -24586549.050 1243771.644 10 0 57975 15300.00000 0 6587550.501 -24284622.453 4447320.653 10 0 57975 16200.00000 0 6284443.681 -23579542.743 7564910.798 10 0 57975 17100.00000 0 6005238.848 -22481130.832 10536224.719 10 0 57975 18000.00000 0 5804268.782 -21012418.367 13303706.612 10 0 57975 18900.00000 0 5730842.343 -19208824.231 15813668.814 10 0 57975 19800.00000 0 5826958.197 -17116831.214 18017329.621 10 0 57975 20700.00000 0 6125329.027 -14792215.527 19871762.477 10 0 57975 21600.00000 0 6647800.486 -12297900.276 21340738.211 10 0 57975 22500.00000 0 7404233.247 -9701519.875 22395443.489 10 0 57975 23400.00000 0 8391897.623 -7072794.841 23015060.654 10 0 57975 24300.00000 0 9595409.266 -4480824.715 23187196.445 10 0 57975 25200.00000 0 10987211.932 -1991410.967 22908149.601 10 0 57975 26100.00000 0 12528590.331 335478.742 22183010.242 10 0 57975 27000.00000 0 14171173.528 2447998.797 21025587.003 10 0 57975 27900.00000 0 15858868.207 4304369.985 19458161.248 10 0 57975 28800.00000 0 17530142.154 5874397.370 17511071.212 10 0 57975 29700.00000 0 19120562.682 7140496.856 15222132.571 10 0 57975 30600.00000 0 20565482.909 8098186.246 12635905.604 10 0 57975 31500.00000 0 21802761.573 8756019.398 9802822.822 10 0 57975 32400.00000 0 22775399.858 9134966.165 6778194.304 10 0 57975 33300.00000 0 23433981.695 9267264.987 3621111.107 10 0 57975 34200.00000 0 23738812.028 9194798.013 393269.864 10 0 57975 35100.00000 0 23661660.545 8967059.786 -2842256.311 10 0 57975 36000.00000 0 23187035.504 8638808.250 -6022274.173 10 0 57975 36900.00000 0 22312932.879 8267500.756 -9084726.707 10 0 57975 37800.00000 0 21051029.129 7910626.837 -11969922.618 10 0 57975 38700.00000 0 19426310.182 7623053.628 -14621713.004 10 0 57975 39600.00000 0 17476153.757 7454498.598 -16988590.741 10 0 57975 40500.00000 0 15248905.615 7447237.970 -19024690.636 10 0 57975 41400.00000 0 12802011.586 7634148.273 -20690671.018 10 0 57975 42300.00000 0 10199785.788 8037163.296 -21954460.524 10 0 57975 43200.00000 0 7510909.871 8666210.377 -22791857.248 10 0 57975 44100.00000 0 4805768.513 9518669.082 -23186970.732 10 0 57975 45000.00000 0 2153732.282 10579372.983 -23132500.623 10 0 57975 45900.00000 0 -379500.092 11821152.466 -22629849.128 10 0 57975 46800.00000 0 -2734391.446 13205894.056 -21689067.388 10 0 57975 47700.00000 0 -4859787.020 14686070.661 -20328638.841 10 0 57975 48600.00000 0 -6714777.405 16206678.094 -18575105.266 10 0 57975 49500.00000 0 -8270129.665 17707497.052 -16462543.678 10 0 57975 50400.00000 0 -9509230.503 19125586.728 -14031904.572 10 0 57975 51300.00000 0 -10428505.426 20397907.226 -11330224.072 10 0 57975 52200.00000 0 -11037299.071 21463962.871 -8409724.440 10 0 57975 53100.00000 0 -11357223.582 22268357.786 -5326819.266 10 0 57975 54000.00000 0 -11421003.478 22763158.671 -2141041.097 10 0 57975 54900.00000 0 -11270865.743 22909967.441 1086089.442 10 0 57975 55800.00000 0 -10956542.303 22681617.996 4292232.714 10 0 57975 56700.00000 0 -10532967.884 22063426.457 7415416.456 10 0 57975 57600.00000 0 -10057768.792 21053942.159 10395218.017 10 0 57975 58500.00000 0 -9588646.877 19665166.839 13173920.853 10 0 57975 59400.00000 0 -9180767.600 17922231.031 15697623.941 10 0 57975 60300.00000 0 -8884261.293 15862538.724 17917283.419 10 0 57975 61200.00000 0 -8741942.525 13534413.280 19789666.554 10 0 57975 62100.00000 0 -8787343.949 10995298.067 21278199.602 10 0 57975 63000.00000 0 -9043148.525 8309583.919 22353692.660 10 0 57975 63900.00000 0 -9520087.894 5546151.370 22994926.581 10 0 57975 64800.00000 0 -10216355.701 2775727.852 23189089.289 10 0 57975 65700.00000 0 -11117563.396 68168.397 22932051.425 10 0 57975 66600.00000 0 -12197243.412 -2510227.615 22228474.011 10 0 57975 67500.00000 0 -13417881.464 -4899251.931 21091744.010 10 0 57975 68400.00000 0 -14732437.130 -7047068.805 19543736.900 10 0 57975 69300.00000 0 -16086290.570 -8912145.918 17614408.976 10 0 57975 70200.00000 0 -17419534.475 -10464752.751 15341225.698 10 0 57975 71100.00000 0 -18669514.797 -11687962.418 12768436.069 10 0 57975 72000.00000 0 -19773512.248 -12578113.744 9946206.730 10 0 57975 72900.00000 0 -20671449.778 -13144713.747 6929632.886 10 0 57975 73800.00000 0 -21308509.432 -13409784.805 3777646.234 10 0 57975 74700.00000 0 -21637545.423 -13406685.041 551842.933 10 0 57975 75600.00000 0 -21621188.909 -13178453.608 -2684743.423 10 0 57975 76500.00000 0 -21233553.303 -12775753.378 -5868897.376 10 0 57975 77400.00000 0 -20461466.467 -12254501.082 -8938478.547 10 0 57975 78300.00000 0 -19305176.993 -11673288.435 -11833653.029 10 0 57975 79200.00000 0 -17778504.828 -11090706.449 -14498073.176 10 0 57975 80100.00000 0 -15908430.834 -10562688.762 -16879981.299 10 0 57975 81000.00000 0 -13734144.046 -10139988.202 -18933215.123 10 0 57975 81900.00000 0 -11305588.500 -9865894.124 -20618095.580 10 0 57975 82800.00000 0 -8681572.527 -9774286.894 -21902180.527 10 0 57975 83700.00000 0 -5927521.254 -9888110.557 -22760871.380 10 0 57975 84600.00000 0 -3112967.218 -10218326.367 -23177862.995 10 0 57975 85500.00000 0 -308884.112 -10763388.991 -23145430.458 10 0 57976 0.00000 0 2415025.955 -11509265.012 -22664549.750 10 0 57976 900.00000 0 4992980.365 -12429990.977 -21744852.173 10 0 57976 1800.00000 0 7365591.431 -13488745.007 -20404415.713 10 0 57976 2700.00000 0 9482068.827 -14639386.942 -18669398.536 10 0 57976 3600.00000 0 11302061.906 -15828400.879 -16573522.992 10 0 57976 4500.00000 0 12797067.696 -16997159.616 -14157420.334 10 0 57976 5400.00000 0 13951349.808 -18084416.748 -11467848.694 10 0 57976 6300.00000 0 14762332.716 -19028923.551 -8556798.670 10 0 57976 7200.00000 0 15240457.143 -19772062.663 -5480502.767 10 0 57976 8100.00000 0 15408504.190 -20260390.048 -2298366.387 10 0 57976 9000.00000 0 15300417.175 -20447980.276 928160.627 10 0 57976 9900.00000 0 14959670.506 -20298478.061 4136751.648 10 0 57976 10800.00000 0 14437253.346 -19786770.678 7265389.267 10 0 57976 11700.00000 0 13789351.600 -18900211.058 10253548.215 10 0 57976 12600.00000 0 13074824.209 -17639339.468 13043353.596 10 0 57976 13500.00000 0 12352578.452 -16018071.907 15580693.096 10 0 57976 14400.00000 0 11678953.447 -14063344.977 17816262.415 10 0 57976 15300.00000 0 11105221.087 -11814229.249 19706523.994 10 0 57976 16200.00000 0 10675309.361 -9320544.984 21214560.481 10 0 57976 17100.00000 0 10423844.261 -6641034.641 22310806.014 10 0 57976 18000.00000 0 10374593.781 -3841165.351 22973640.201 10 0 57976 18900.00000 0 10539381.296 -990650.207 23189832.086 10 0 57976 19800.00000 0 10917516.287 1839210.531 22954823.848 10 0 57976 20700.00000 0 11495769.024 4578258.841 22272846.807 10 0 57976 21600.00000 0 12248892.929 7160165.866 21156865.429 10 0 57976 22500.00000 0 13140675.116 9524964.180 19628348.313 10 0 57976 23400.00000 0 14125472.837 11621318.811 17716868.671 10 0 57976 24300.00000 0 15150172.352 13408440.915 15459540.464 10 0 57976 25200.00000 0 16156487.999 14857562.574 12900299.980 10 0 57976 26100.00000 0 17083503.911 15952909.512 10089046.407 10 0 57976 27000.00000 0 17870349.586 16692129.939 7080658.318 10 0 57976 27900.00000 0 18458894.123 17086161.212 3933906.124 10 0 57976 28800.00000 0 18796342.589 17158540.308 710283.407 10 0 57976 29700.00000 0 18837621.946 16944188.589 -2527217.974 10 0 57976 30600.00000 0 18547453.058 16487724.289 -5715362.657 10 0 57976 31500.00000 0 17902019.063 15841376.754 -8791929.220 10 0 57976 32400.00000 0 16890158.223 15062593.784 -11696943.407 10 0 57976 33300.00000 0 15514030.319 14211446.366 -14373861.002 10 0 57976 34200.00000 0 13789228.790 13347943.362 -16770675.794 10 0 57976 35100.00000 0 11744334.919 12529371.850 -18840930.329 10 0 57976 36000.00000 0 9419934.270 11807776.773 -20544609.920 10 0 57976 36900.00000 0 6867138.431 11227686.579 -21848903.301 10 0 57976 37800.00000 0 4145675.605 10824180.094 -22728816.738 10 0 57976 38700.00000 0 1321631.047 10621374.451 -23167631.804 10 0 57976 39600.00000 0 -1535067.668 10631395.483 -23157200.223 10 0 57976 40500.00000 0 -4353315.997 10853871.247 -22698072.668 10 0 57976 41400.00000 0 -7063538.611 11275967.255 -21799461.302 10 0 57976 42300.00000 0 -9600325.640 11872959.499 -20479038.862 10 0 57976 43200.00000 0 -11904892.087 12609319.304 -18762579.758 10 0 57976 44100.00000 0 -13927261.264 13440263.235 -16683451.085 10 0 57976 45000.00000 0 -15628084.712 14313702.574 -14281963.882 10 0 57976 45900.00000 0 -16980026.214 15172510.883 -11604596.960 10 0 57976 46800.00000 0 -17968655.212 15957015.457 -8703107.621 10 0 57976 47700.00000 0 -18592814.820 16607609.528 -5633545.393 10 0 57976 48600.00000 0 -18864450.855 17067377.242 -2455186.419 10 0 57976 49500.00000 0 -18807910.063 17284622.874 770592.567 10 0 57976 50400.00000 0 -18458737.141 17215199.459 3981480.463 10 0 57976 51300.00000 0 -17862020.512 16824540.029 7115417.407 10 0 57976 52200.00000 0 -17070355.238 16089306.388 10111778.366 10 0 57976 53100.00000 0 -16141507.146 14998585.790 12912533.059 10 0 57976 54000.00000 0 -15135874.738 13554583.973 15463360.906 10 0 57976 54900.00000 0 -14113853.973 11772783.406 17714700.192 10 0 57976 55800.00000 0 -13133215.477 9681557.406 19622711.449 10 0 57976 56700.00000 0 -12246603.606 7321253.010 21150136.484 10 0 57976 57600.00000 0 -11499262.303 4742777.431 22267035.969 10 0 57976 58500.00000 0 -10927083.821 2005743.662 22951390.446 10 0 57976 59400.00000 0 -10555063.470 -823750.594 23189551.868 10 0 57976 60300.00000 0 -10396227.035 -3675620.820 22976535.309 10 0 57976 61200.00000 0 -10451078.142 -6478468.180 22316143.263 10 0 57976 62100.00000 0 -10707591.097 -9162316.386 21220918.078 10 0 57976 63000.00000 0 -11141751.807 -11661299.173 19711921.325 10 0 57976 63900.00000 0 -11718625.925 -13916185.626 17818342.462 10 0 57976 64800.00000 0 -12393910.567 -15876636.838 15576942.768 10 0 57976 65700.00000 0 -13115904.753 -17503098.015 13031344.161 10 0 57976 66600.00000 0 -13827815.087 -18768245.109 10231176.297 10 0 57976 67500.00000 0 -14470298.080 -19657923.983 7231098.658 10 0 57976 68400.00000 0 -14984129.662 -20171541.744 4089717.613 10 0 57976 69300.00000 0 -15312886.390 -20321893.617 868421.163 10 0 57976 70200.00000 0 -15405522.017 -20134433.363 -2369843.786 10 0 57976 71100.00000 0 -15218727.531 -19646019.630 -5561825.323 10 0 57976 72000.00000 0 -14718972.297 -18903193.427 -8645224.459 10 0 57976 72900.00000 0 -13884138.048 -17960062.403 -11559930.113 10 0 57976 73800.00000 0 -12704675.530 -16875884.368 -14249205.005 10 0 57976 74700.00000 0 -11184234.735 -15712455.093 -16660797.769 10 0 57976 75600.00000 0 -9339742.623 -14531413.182 -18747958.918 10 0 57976 76500.00000 0 -7200926.181 -13391577.458 -20470340.924 10 0 57976 77400.00000 0 -4809302.390 -12346429.869 -21794765.705 10 0 57976 78300.00000 0 -2216678.998 -11441849.689 -22695846.150 10 0 57976 79200.00000 0 516769.839 -10714193.018 -23156451.707 10 0 57976 80100.00000 0 3324771.757 -10188796.259 -23168011.314 10 0 57976 81000.00000 0 6137473.470 -9878963.678 -22730650.357 10 0 57976 81900.00000 0 8884103.002 -9785478.583 -21853161.318 10 0 57976 82800.00000 0 11495667.403 -9896655.686 -20552810.756 10 0 57976 83700.00000 0 13907576.003 -10188929.854 -18854987.945 10 0 57976 84600.00000 0 16062082.884 -10627954.560 -16792702.993 10 0 57976 85500.00000 0 17910449.958 -11170162.690 -14405944.613 99